Temperature
17 17 18 18 15 13 15 15 15 15 15 16 16 16 15 15 15 16 15 15 15 15 15 15 15 15 14 14 15 15 15 15 15 14 14 14 14 14 14 14 14 14 14 14 14 14 14 14 14
17 17 17 17 13 14 15 14 15 15 16 16 15 15 14 14 14 15 15 15 15 15 15 15 15 14 14 14 14 14 14 14 14 14 14 14 14 14 14 14 14 14 14 14 14 14 14 14 14
17 17 17 12 13 14 16 15 14 15 15 15 15 14 14 14 14 15 15 15 15 15 15 15 14 14 14 14 14 14 14 14 14 14 14 14 14 14 14 14 13 13 13 14 13 13 13 13 14
16 17 15 12 14 13 14 15 14 14 15 15 14 14 14 14 14 15 15 15 15 15 14 14 14 14 14 14 14 14 14 14 14 14 14 14 14 14 14 13 13 13 13 13 13 13 13 13 13
16 16 12 12 13 13 13 13 14 14 14 14 14 13 13 14 14 14 15 14 14 14 14 14 14 14 14 14 14 14 14 14 14 14 14 13 13 13 13 13 13 13 13 13 13 13 13 13 13
16 12 11 12 13 13 13 14 14 13 13 13 13 12 13 14 14 14 14 14 14 14 14 14 14 14 14 14 14 14 14 14 14 14 13 13 13 13 13 13 13 13 13 13 13 13 13 13 13
14 10 11 12 12 13 13 14 13 13 13 13 14 12 13 14 14 14 14 14 13 14 14 13 13 13 13 13 13 14 14 14 13 13 13 13 13 13 13 13 13 13 13 13 13 13 13 13 13
14 10 12 11 12 13 13 13 14 13 13 14 14 13 13 14 13 13 13 13 13 13 13 13 13 13 13 13 13 13 13 13 13 13 13 13 13 13 13 13 13 12 12 12 12 12 12 12 12
14 10 11 11 12 13 12 13 13 13 13 13 13 13 14 14 13 13 13 13 13 13 13 13 13 13 13 13 13 13 13 13 13 13 13 13 13 13 12 12 12 12 12 12 12 12 12 12 12
12 10 11 11 11 12 12 12 12 12 12 12 12 13 13 13 13 13 13 13 13 13 13 13 12 13 13 13 13 13 13 13 13 13 13 13 12 12 12 12 12 12 12 12 12 12 12 12 12
10 10 11 11 12 12 12 12 12 12 11 12 13 13 13 12 13 13 13 13 13 12 12 12 12 12 12 12 12 12 12 13 12 12 12 12 12 12 12 12 12 12 12 12 12 12 11 12 12
9 9 10 11 11 11 11 11 11 11 12 13 13 13 12 12 12 12 12 12 12 12 12 12 12 12 12 12 12 12 12 12 12 12 12 12 12 12 11 11 11 11 11 11 11 11 11 11 11
9 9 10 10 11 11 11 10 10 11 12 12 12 12 12 12 12 12 12 12 12 12 12 12 12 12 11 11 11 11 12 11 11 11 11 11 11 11 11 11 11 11 11 11 11 11 11 11 11
9 9 9 10 10 10 10 9 10 11 12 12 12 12 12 12 12 12 11 11 12 12 11 11 11 11 11 11 11 11 11 11 11 11 11 11 11 11 11 11 11 11 11 11 11 11 11 11 11
9 8 9 9 9 9 9 9 9 11 11 11 11 11 11 11 11 11 11 11 11 11 11 11 11 11 11 11 11 11 11 11 11 11 10 10 10 10 10 10 10 10 10 10 10 10 10 10 10
8 8 9 9 8 9 10 9 9 10 10 10 10 11 11 11 11 11 11 11 11 11 11 11 11 11 10 10 10 10 10 10 10 10 10 10 10 10 10 10 10 10 10 10 10 10 10 9 10
8 8 8 8 8 8 8 8 8 9 9 9 9 10 10 10 10 10 10 10 11 11 10 10 10 10 10 10 10 10 10 10 10 10 10 9 9 9 9 9 9 9 9 9 9 9 9 9 9
8 7 8 8 7 7 7 7 7 8 8 8 8 9 9 10 10 10 10 10 10 10 10 10 10 9 9 9 9 9 9 9 9 9 9 9 9 9 9 9 9 9 9 9 9 9 9 9 9
7 7 7 7 7 7 6 6 7 7 7 7 7 8 8 9 9 9 9 10 10 9 9 9 9 9 9 9 9 9 9 9 9 9 9 9 9 8 8 8 8 8 8 8 8 8 8 8 8
7 7 7 7 7 7 6 6 6 6 6 7 7 7 8 8 9 9 9 9 9 9 9 9 9 8 8 9 9 8 8 9 8 8 8 8 8 8 8 8 8 8 8 8 8 7 7 7 7
6 6 6 6 6 6 6 6 6 6 6 7 7 8 8 8 8 9 9 9 9 9 9 9 8 8 8 8 8 8 8 8 8 8 8 8 7 7 7 7 7 7 7 7 7 7 7 7 7
6 6 6 6 6 5 6 6 6 6 5 5 6 7 8 8 8 8 8 8 8 8 8 8 8 8 8 8 8 8 7 7 7 7 7 7 7 7 7 7 7 6 6 7 6 6 6 6 6
5 6 5 5 5 4 5 5 5 5 6 6 5 6 7 8 8 8 8 8 8 7 7 7 7 7 7 7 7 7 7 7 6 6 7 7 7 7 6 6 6 6 6 6 6 6 6 5 5
5 5 4 3 4 5 4 4 5 4 6 6 5 6 7 7 7 7 7 7 7 7 7 7 7 7 7 7 7 6 6 6 6 6 6 6 6 6 6 6 5 5 5 5 5 5 5 5 5
5 4 4 4 3 4 4 4 5 5 5 5 5 6 6 6 7 7 7 7 7 7 6 6 6 6 6 6 6 6 6 6 6 6 5 5 6 5 5 5 5 5 5 5 5 5 5 4 4
4 5 4 5 4 3 3 3 5 5 5 5 5 5 6 6 6 6 6 6 6 6 6 6 6 6 6 6 5 5 5 5 5 5 5 5 5 5 4 4 4 4 4 4 4 4 4 3 3
4 3 4 3 2 2 3 3 4 4 4 4 4 5 5 5 6 6 6 6 6 6 5 5 5 5 5 5 5 5 5 5 5 4 4 4 4 4 4 3 3 3 3 3 3 3 3 3 3
4 3 2 3 4 4 4 4 4 5 4 4 3 4 5 5 5 5 5 5 5 5 5 5 5 5 5 5 4 4 4 4 4 4 4 3 3 3 3 3 3 3 3 3 3 2 3 2 2
3 3 2 2 2 3 4 5 5 4 4 3 3 4 4 5 5 4 4 5 5 5 5 5 4 4 4 4 4 4 4 4 3 3 3 3 3 2 2 2 2 2 2 2 2 2 2 2 2
3 2 2 3 2 1 1 4 4 3 3 3 3 3 4 4 4 4 4 4 4 4 4 4 4 4 4 4 3 3 3 3 3 3 2 2 2 2 2 2 2 2 2 2 2 2 1 1 2
Wind_Speed
10 6 2 4 5 4 2 4 2 1 1 0 0 3 5 4 3 2 0 1 1 2 4 7 8 8 8 8 8 8 8 8 8 8 9 9 8 8 8 8 8 8 8 9 9 9 9 9 9
4 3 5 5 5 1 5 4 3 3 2 2 3 3 3 0 0 1 1 1 1 3 4 6 8 8 8 8 8 8 7 7 8 8 8 8 8 7 7 7 7 8 8 8 8 9 8 8 8
2 4 5 5 4 6 5 3 3 1 1 2 2 2 1 1 0 1 1 0 3 3 4 5 7 8 8 8 7 7 6 7 7 7 7 8 7 7 7 7 7 7 7 7 7 8 8 8 8
3 5 5 4 4 5 4 2 1 1 1 2 2 1 1 1 1 1 0 2 4 3 3 4 6 8 8 8 7 6 6 6 6 6 6 7 7 6 6 6 6 6 6 6 6 6 7 7 7
4 5 4 0 4 3 3 2 1 2 1 1 2 1 1 3 2 2 3 3 4 3 4 3 5 7 8 8 7 6 5 5 6 6 6 7 6 6 6 6 5 5 5 5 5 5 5 6 6
5 5 3 3 5 3 3 2 1 1 1 1 2 1 2 2 2 2 3 3 3 3 3 3 4 4 6 7 7 6 5 5 5 5 5 6 6 5 5 5 5 4 4 4 4 4 5 5 5
5 4 4 4 3 3 2 1 3 3 2 2 3 2 2 2 0 1 3 3 3 3 3 2 2 3 3 4 6 6 6 6 5 5 5 5 5 5 4 4 4 4 3 3 3 3 4 4 3
5 5 3 3 4 4 1 0 1 3 3 1 3 5 4 3 1 3 4 3 3 3 2 2 3 2 2 2 3 4 5 5 5 4 5 5 5 5 4 4 3 3 2 2 2 2 2 3 3
4 4 4 6 6 3 0 1 1 1 2 0 1 2 2 3 4 4 3 2 1 1 1 1 2 2 2 2 2 3 3 4 4 4 4 5 4 4 4 3 2 2 2 1 1 1 1 2 2
4 4 6 3 3 2 0 1 1 1 1 1 1 1 1 3 5 5 3 2 1 1 1 0 1 1 2 2 2 2 2 2 3 3 4 4 4 3 3 3 2 1 1 1 1 1 1 2 2
3 5 3 2 1 1 0 1 0 3 3 5 5 3 3 3 3 4 3 3 3 1 1 0 0 1 1 1 2 2 2 2 2 3 4 4 4 3 3 2 2 2 2 2 2 2 2 2 1
2 2 2 2 1 0 1 1 1 3 5 3 3 4 4 4 5 5 4 3 2 1 0 1 1 1 1 2 1 1 1 2 2 2 2 3 2 2 1 1 1 2 1 2 2 1 1 2 1
2 2 1 2 2 1 1 2 3 5 5 2 1 3 4 4 4 3 2 2 1 1 1 1 0 1 1 1 1 1 1 1 1 1 2 2 2 1 1 1 0 1 1 1 1 1 1 1 2
1 1 2 3 2 1 1 3 2 6 2 1 2 3 4 4 4 2 1 1 1 2 1 0 0 1 1 1 1 1 0 1 2 1 1 1 1 1 1 1 0 0 0 0 1 1 1 1 1
1 1 3 2 2 1 1 5 5 6 1 1 3 4 4 3 2 3 3 2 2 2 1 1 1 1 1 1 1 1 0 1 1 1 0 1 1 1 1 1 1 1 1 0 0 0 0 1 1
2 1 2 3 1 2 1 8 5 2 2 4 4 4 3 3 3 3 2 2 1 1 0 0 0 1 1 1 1 1 1 1 1 1 1 1 1 1 1 1 1 1 1 1 1 1 1 2 2
2 1 4 5 1 1 2 8 6 2 2 5 5 5 4 3 3 3 2 2 1 1 1 1 1 1 0 1 1 1 1 1 0 1 1 1 0 0 0 1 1 1 0 1 1 1 1 2 3
4 3 4 5 3 1 4 10 9 5 4 6 6 5 4 4 5 3 2 2 1 1 1 2 1 1 1 2 2 1 1 1 1 1 1 0 0 0 1 1 1 1 1 1 1 1 1 2 3
3 3 5 5 3 2 7 11 11 7 5 6 6 5 5 5 3 2 1 1 1 2 2 2 1 1 1 1 1 1 1 1 1 1 1 1 1 1 0 0 0 1 1 2 1 2 1 2 1
2 3 5 5 2 2 6 11 9 6 5 6 6 6 6 4 2 1 1 1 1 1 1 2 1 0 0 1 1 1 0 1 1 2 2 2 1 1 1 1 1 1 1 1 1 1 1 1 1
3 4 4 4 5 2 5 8 5 4 3 4 4 5 5 6 5 3 2 2 1 1 2 2 2 1 1 2 2 2 2 2 2 2 2 3 3 1 1 1 1 1 1 2 2 2 2 2 2
5 4 4 3 2 4 1 5 7 5 4 4 5 5 5 5 4 2 2 2 2 2 1 2 2 1 1 2 3 3 2 1 1 2 2 3 3 2 2 2 2 2 2 2 3 2 3 3 2
4 1 2 1 1 3 2 3 9 3 5 6 6 6 6 4 4 3 3 3 2 1 1 1 2 1 2 2 2 2 1 0 1 2 2 3 3 3 3 2 2 2 2 3 3 3 3 3 3
2 3 3 3 2 4 5 5 8 5 6 5 4 5 5 3 3 3 2 1 1 1 2 2 2 1 1 2 2 2 1 0 1 2 2 3 2 2 3 2 2 2 2 3 3 3 3 3 4
2 4 3 3 2 6 3 5 9 6 5 5 5 5 4 3 3 2 2 2 1 1 1 1 1 1 1 1 1 0 1 1 1 2 2 2 2 2 3 3 2 2 3 3 3 2 3 3 3
4 5 5 5 5 5 2 7 8 4 4 3 3 3 2 2 2 3 3 3 2 2 1 1 1 0 0 1 0 0 1 1 1 2 2 2 2 3 3 3 3 3 3 3 2 3 3 3 4
4 3 3 4 1 3 6 7 8 2 3 2 2 2 2 2 2 3 2 2 3 2 2 2 2 1 1 0 0 0 1 1 1 2 1 2 2 3 3 2 2 3 3 3 2 3 4 3 3
2 5 4 3 2 5 6 5 5 5 4 3 2 3 3 2 2 2 2 2 2 2 2 1 2 2 1 0 0 0 1 1 1 1 1 2 3 3 3 3 2 2 2 3 3 3 3 3 4
3 3 3 3 3 4 4 6 4 5 4 4 4 3 3 3 2 2 2 1 1 0 0 1 1 1 0 0 0 0 1 1 1 1 2 2 2 3 3 3 3 3 3 3 3 3 3 4 4
3 5 5 4 4 4 3 7 3 2 3 2 3 2 2 2 2 1 1 0 0 0 0 0 0 1 1 0 0 0 1 1 2 2 3 2 2 2 3 3 3 3 3 3 2 3 4 4 4
Wind_Direction
339 348 50 55 57 56 232 248 232 251 252 314 76 121 140 149 165 190 312 76 86 152 172 163 155 150 147 138 130 126 122 118 117 116 116 115 113 109 104 100 94 91 88 85 83 79 75 74 77
335 3 53 61 98 155 259 246 227 225 189 109 63 75 88 120 323 96 72 330 97 135 150 158 153 147 144 141 137 133 128 125 123 121 121 120 118 115 109 103 99 94 89 86 84 79 74 73 75
350 45 79 83 133 186 220 233 220 266 83 105 77 51 113 192 305 201 266 220 100 109 129 149 150 144 141 142 140 138 136 133 130 125 126 126 122 116 109 103 100 95 90 88 85 81 76 76 78
62 48 58 88 204 220 218 243 197 145 56 57 102 59 325 342 272 243 106 97 108 102 104 136 146 148 146 145 144 140 139 139 136 131 130 130 124 120 113 105 100 95 93 91 87 81 77 78 79
56 78 76 71 238 248 252 271 190 149 135 52 113 123 295 340 4 87 103 105 121 110 99 113 139 153 154 154 152 150 147 142 138 136 132 132 130 128 120 111 107 99 96 95 90 85 81 84 81
58 74 113 215 241 263 271 271 153 151 144 97 119 131 253 341 50 69 93 101 116 123 111 122 121 139 161 163 162 160 155 151 142 135 129 132 137 136 130 123 115 107 102 100 93 87 82 86 82
110 114 174 198 228 259 253 197 157 170 183 213 164 146 270 297 10 82 89 88 87 97 102 90 110 115 131 158 166 162 158 155 148 140 136 135 131 133 138 136 130 122 113 105 96 92 85 83 81
122 116 157 201 206 239 277 137 182 172 199 193 152 164 226 233 132 86 82 82 80 76 81 75 74 81 89 137 153 153 153 148 145 140 138 136 133 130 128 122 125 131 131 122 110 103 85 75 73
96 97 199 207 196 223 329 100 354 31 112 35 229 211 241 145 124 100 82 71 77 63 57 77 72 59 69 88 129 125 140 143 135 131 133 126 115 114 119 113 114 137 140 129 118 115 75 61 59
100 169 215 207 192 199 267 191 227 62 23 291 298 341 68 127 143 144 153 173 188 249 275 67 84 80 77 80 80 96 103 111 121 123 126 115 106 105 108 115 112 100 103 113 103 24 44 42 44
142 188 210 229 216 206 269 296 277 149 237 223 219 207 147 148 160 170 184 190 200 212 270 301 101 103 97 78 66 69 83 78 84 108 116 114 102 95 82 79 72 59 58 57 50 38 37 29 30
153 243 235 268 304 263 224 260 283 212 233 246 211 174 169 179 194 197 200 200 191 174 275 249 149 115 94 98 80 64 80 84 66 70 104 115 106 93 86 85 61 52 64 64 50 45 18 5 344
199 269 294 291 312 279 275 246 253 258 264 292 130 162 186 199 219 224 211 205 192 198 240 312 135 107 77 87 85 64 84 113 101 81 83 98 125 146 114 106 81 26 58 87 58 12 331 327 318
210 255 298 313 309 329 248 270 253 267 258 184 183 209 217 215 218 212 219 221 223 212 222 227 234 105 86 98 91 79 72 133 114 92 78 102 121 147 145 160 168 310 308 206 193 232 275 290 295
45 6 332 314 298 300 339 295 236 257 240 234 239 239 240 238 219 215 218 220 221 223 210 177 195 101 86 66 74 70 23 141 130 143 129 125 118 150 157 185 203 251 257 236 208 262 295 291 293
50 42 292 300 335 312 152 264 261 264 198 249 257 255 254 258 241 236 225 211 201 177 214 210 36 74 108 77 57 64 46 101 150 154 131 105 133 126 165 195 224 255 216 183 202 234 280 290 290
40 238 252 290 308 336 198 256 275 276 239 255 257 251 248 262 275 268 244 206 190 168 147 89 49 74 126 95 58 54 66 49 133 134 126 131 148 200 207 235 256 250 210 205 233 273 250 276 287
214 225 250 256 296 291 255 265 281 288 254 254 257 253 236 235 251 257 241 209 185 136 106 80 63 73 84 91 71 49 51 29 29 81 100 88 62 251 197 236 282 266 202 237 235 248 268 261 273
180 205 252 265 292 270 259 270 277 282 270 259 254 246 236 236 250 258 233 167 116 86 87 91 71 56 91 98 105 83 16 11 22 20 29 30 14 2 250 236 285 272 228 244 247 242 266 291 288
197 242 266 288 314 274 281 277 272 261 248 241 239 234 227 223 245 251 188 124 129 144 137 123 121 78 97 103 109 132 119 40 21 13 17 8 0 351 306 229 216 226 262 264 259 249 256 280 289
223 217 241 269 325 333 314 297 276 264 257 256 241 226 217 209 212 210 187 177 158 149 142 131 120 93 71 76 82 67 58 37 19 12 2 352 344 332 298 269 226 220 220 251 253 230 231 249 250
239 225 215 245 308 296 360 289 281 271 278 259 244 230 224 220 211 208 195 184 196 202 154 132 120 98 85 92 95 95 92 70 305 320 326 340 344 332 316 279 248 233 232 242 253 251 240 224 241
211 163 170 203 205 293 271 240 282 292 264 256 241 232 227 216 200 203 206 197 191 167 141 123 99 76 72 87 97 103 90 92 317 330 336 341 347 338 323 303 273 250 247 244 245 255 236 221 226
161 76 57 52 75 273 237 207 276 249 233 248 242 232 223 214 196 200 202 164 142 130 107 96 91 61 60 77 82 102 110 33 340 332 328 328 323 326 323 314 297 271 257 250 246 244 245 234 232
111 102 27 348 328 250 225 216 252 256 240 230 233 234 227 208 194 198 199 184 162 138 122 110 110 54 44 69 70 115 196 200 240 281 292 305 311 311 307 312 302 287 269 262 253 249 253 248 239
193 161 167 209 237 274 264 236 253 271 282 264 239 231 218 210 206 209 208 194 188 186 181 165 160 143 91 105 221 271 253 231 256 269 281 289 291 293 300 298 292 290 291 279 262 253 250 254 251
150 187 171 141 175 271 265 278 298 276 302 285 245 238 246 246 232 219 202 185 185 189 200 197 185 177 198 215 277 339 312 301 291 300 302 297 297 305 315 302 298 300 300 293 276 260 260 256 254
144 147 121 148 196 262 282 271 264 273 263 264 251 245 259 266 260 245 222 211 201 203 212 193 180 187 210 205 205 336 309 298 302 318 304 300 308 315 315 317 311 306 305 299 288 276 268 261 260
141 146 151 157 180 195 268 271 241 239 239 236 248 256 260 270 265 252 240 232 203 147 125 154 152 143 160 228 312 352 321 326 332 324 307 306 313 315 315 311 309 309 309 300 288 291 285 268 269
185 185 163 183 228 200 222 270 301 266 267 247 266 277 281 281 273 252 241 245 131 47 336 214 193 189 230 226 308 318 341 353 342 325 315 318 318 321 318 318 316 316 317 316 302 294 297 285 275
Height
1492 1492 1494 1496 1500 1512 1513 1507 1503 1502 1501 1501 1501 1501 1502 1504 1507 1511 1507 1505 1507 1508 1510 1511 1513 1514 1515 1517 1518 1519 1520 1521 1521 1522 1522 1523 1523 1524 1524 1525 1525 1525 1526 1526 1526 1526 1526 1527 1527
1492 1493 1495 1496 1507 1518 1513 1504 1502 1500 1500 1500 1500 1501 1501 1503 1504 1504 1504 1505 1506 1508 1509 1511 1512 1514 1515 1516 1517 1519 1520 1520 1521 1522 1522 1523 1524 1524 1524 1525 1525 1526 1526 1526 1526 1526 1527 1527 1527
1492 1493 1495 1500 1510 1513 1506 1500 1500 1499 1499 1500 1500 1501 1502 1503 1503 1504 1504 1505 1506 1508 1509 1510 1512 1513 1515 1516 1517 1518 1519 1520 1521 1521 1522 1523 1524 1524 1524 1525 1525 1525 1526 1526 1526 1527 1527 1527 1527
1493 1494 1496 1504 1507 1505 1501 1499 1499 1499 1499 1500 1500 1502 1502 1503 1503 1504 1504 1505 1506 1507 1509 1510 1511 1513 1514 1515 1516 1517 1518 1519 1520 1521 1522 1522 1523 1524 1524 1525 1525 1525 1526 1526 1526 1526 1527 1527 1527
1492 1494 1502 1509 1505 1501 1499 1498 1498 1499 1499 1500 1501 1501 1502 1503 1503 1503 1504 1505 1506 1507 1508 1509 1511 1512 1513 1514 1515 1516 1517 1518 1519 1520 1521 1522 1522 1523 1524 1524 1524 1525 1525 1526 1526 1526 1526 1527 1527
1493 1495 1508 1510 1504 1500 1498 1497 1498 1498 1499 1500 1501 1501 1501 1502 1502 1503 1504 1504 1505 1506 1507 1509 1510 1511 1512 1513 1514 1515 1516 1517 1518 1519 1520 1521 1522 1522 1523 1523 1524 1524 1525 1525 1525 1525 1526 1526 1526
1493 1499 1505 1505 1504 1500 1497 1497 1497 1497 1498 1500 1500 1501 1500 1501 1502 1503 1503 1504 1505 1506 1506 1507 1509 1510 1511 1512 1513 1514 1515 1516 1517 1518 1519 1520 1520 1521 1522 1522 1523 1523 1524 1524 1524 1525 1525 1525 1525
1492 1498 1503 1505 1503 1499 1496 1496 1496 1497 1497 1499 1499 1499 1499 1500 1501 1502 1503 1503 1504 1505 1505 1506 1507 1508 1509 1510 1512 1512 1513 1514 1515 1516 1517 1518 1519 1520 1520 1521 1522 1522 1523 1523 1523 1524 1524 1524 1524
1492 1501 1504 1501 1500 1497 1495 1496 1496 1496 1496 1497 1497 1498 1498 1499 1499 1500 1501 1502 1502 1503 1504 1505 1506 1507 1507 1509 1510 1511 1511 1512 1513 1514 1515 1516 1517 1518 1519 1520 1520 1521 1521 1522 1522 1522 1523 1523 1523
1492 1501 1498 1495 1495 1495 1495 1495 1495 1495 1496 1496 1496 1496 1496 1497 1498 1498 1499 1499 1500 1501 1502 1503 1504 1505 1506 1507 1507 1509 1509 1510 1511 1512 1513 1514 1515 1516 1517 1518 1518 1519 1520 1520 1520 1520 1521 1521 1521
1492 1496 1494 1494 1493 1494 1494 1495 1495 1495 1496 1494 1493 1494 1494 1495 1496 1497 1497 1498 1499 1500 1500 1501 1502 1503 1504 1504 1505 1506 1507 1508 1509 1510 1511 1512 1513 1514 1515 1516 1516 1517 1518 1518 1518 1518 1519 1519 1519
1493 1493 1493 1493 1493 1493 1494 1494 1494 1494 1493 1492 1492 1493 1493 1494 1494 1495 1495 1496 1497 1498 1499 1500 1500 1501 1502 1503 1503 1504 1505 1506 1507 1508 1509 1510 1511 1512 1513 1514 1514 1515 1515 1516 1516 1516 1517 1517 1517
1492 1492 1492 1492 1492 1492 1493 1493 1493 1491 1491 1491 1491 1492 1492 1492 1493 1494 1495 1495 1496 1496 1497 1498 1498 1499 1499 1500 1501 1502 1503 1504 1505 1506 1506 1507 1508 1509 1510 1511 1512 1512 1513 1513 1514 1514 1514 1514 1514
1492 1492 1492 1492 1491 1491 1492 1491 1492 1488 1489 1489 1489 1490 1490 1491 1492 1492 1493 1493 1494 1494 1495 1496 1496 1497 1497 1498 1499 1500 1501 1502 1503 1503 1504 1505 1506 1507 1507 1508 1509 1509 1510 1510 1511 1511 1511 1511 1511
1491 1492 1492 1491 1491 1491 1491 1491 1489 1486 1487 1487 1487 1488 1488 1489 1490 1490 1491 1491 1492 1493 1493 1494 1494 1494 1495 1496 1497 1497 1499 1500 1500 1501 1502 1502 1503 1504 1505 1505 1506 1506 1507 1507 1508 1508 1508 1508 1508
1492 1494 1495 1492 1491 1491 1494 1492 1487 1486 1486 1485 1485 1485 1486 1486 1487 1488 1489 1489 1490 1491 1491 1492 1492 1492 1492 1494 1495 1496 1497 1497 1498 1498 1499 1500 1500 1501 1502 1502 1503 1503 1504 1504 1504 1505 1504 1504 1504
1496 1498 1496 1493 1491 1491 1493 1490 1485 1485 1484 1483 1483 1483 1483 1484 1485 1486 1486 1487 1488 1488 1489 1490 1490 1490 1490 1491 1492 1493 1494 1495 1495 1495 1496 1497 1497 1498 1498 1499 1500 1500 1500 1501 1501 1501 1501 1500 1500
1497 1498 1496 1495 1492 1492 1492 1489 1483 1483 1482 1481 1481 1480 1481 1481 1482 1484 1484 1485 1486 1486 1487 1487 1488 1489 1489 1489 1490 1491 1492 1492 1492 1492 1493 1493 1494 1494 1495 1496 1496 1497 1497 1497 1497 1497 1497 1497 1496
1495 1496 1496 1494 1493 1493 1491 1487 1482 1480 1480 1479 1478 1478 1478 1479 1480 1481 1482 1483 1483 1484 1485 1485 1485 1486 1486 1486 1487 1488 1488 1489 1489 1489 1489 1490 1490 1491 1491 1491 1492 1493 1493 1493 1493 1493 1493 1493 1492
1495 1496 1496 1494 1493 1493 1491 1486 1480 1478 1477 1476 1475 1475 1476 1477 1478 1479 1480 1480 1481 1481 1482 1482 1483 1484 1484 1483 1484 1485 1486 1486 1486 1486 1486 1487 1487 1487 1487 1487 1488 1488 1489 1489 1489 1489 1489 1489 1489
1495 1497 1496 1496 1495 1493 1492 1484 1479 1475 1474 1473 1473 1473 1473 1474 1475 1476 1477 1478 1479 1479 1479 1480 1481 1482 1482 1481 1482 1483 1483 1484 1484 1483 1483 1484 1484 1484 1483 1483 1484 1484 1484 1484 1485 1485 1484 1484 1485
1494 1494 1494 1496 1498 1498 1496 1495 1479 1475 1473 1471 1470 1470 1470 1471 1472 1473 1475 1475 1476 1477 1477 1478 1479 1479 1479 1479 1480 1480 1480 1480 1481 1481 1481 1481 1481 1480 1480 1480 1480 1480 1480 1480 1480 1480 1480 1480 1480
1492 1492 1494 1496 1498 1501 1498 1499 1482 1476 1472 1468 1467 1467 1468 1469 1470 1471 1472 1473 1474 1475 1476 1476 1477 1477 1477 1477 1478 1478 1478 1478 1478 1478 1478 1478 1477 1477 1477 1476 1476 1476 1475 1475 1475 1476 1476 1475 1475
1491 1494 1497 1500 1502 1502 1496 1498 1484 1476 1468 1465 1465 1465 1465 1467 1468 1469 1470 1471 1472 1473 1473 1474 1475 1475 1475 1475 1476 1476 1476 1476 1475 1475 1475 1474 1474 1473 1473 1472 1471 1471 1471 1471 1470 1470 1470 1470 1470
1492 1497 1505 1505 1510 1501 1494 1493 1480 1467 1464 1463 1463 1463 1463 1464 1465 1466 1467 1468 1469 1470 1471 1472 1472 1472 1473 1473 1473 1473 1473 1473 1473 1472 1471 1471 1470 1469 1469 1468 1467 1467 1467 1466 1465 1465 1465 1465 1465
1491 1493 1501 1504 1505 1500 1496 1491 1473 1464 1462 1461 1461 1461 1462 1462 1463 1463 1464 1465 1466 1467 1468 1469 1469 1469 1470 1470 1471 1471 1471 1471 1470 1470 1468 1467 1467 1466 1465 1464 1463 1463 1462 1462 1461 1461 1461 1461 1461
1491 1495 1496 1504 1508 1507 1494 1485 1471 1462 1461 1460 1460 1460 1460 1461 1461 1461 1462 1463 1464 1465 1466 1466 1466 1467 1468 1468 1469 1469 1469 1468 1467 1466 1465 1464 1463 1462 1462 1461 1460 1459 1458 1457 1457 1456 1456 1456 1456
1489 1493 1500 1502 1501 1496 1488 1484 1474 1463 1461 1460 1459 1459 1459 1459 1460 1460 1461 1461 1462 1463 1464 1464 1464 1465 1465 1466 1466 1466 1465 1465 1464 1463 1462 1461 1460 1459 1458 1457 1456 1455 1454 1453 1453 1452 1452 1452 1451
1492 1494 1495 1500 1501 1498 1492 1478 1463 1461 1459 1459 1459 1458 1458 1458 1458 1459 1459 1460 1460 1460 1461 1461 1462 1462 1463 1463 1463 1463 1462 1462 1461 1460 1459 1457 1456 1455 1454 1453 1452 1451 1450 1450 1449 1448 1448 1447 1447
1488 1489 1494 1496 1498 1502 1500 1479 1459 1459 1458 1458 1458 1458 1458 1458 1458 1458 1458 1458 1458 1458 1459 1459 1460 1460 1460 1460 1460 1460 1459 1459 1458 1457 1455 1454 1453 1452 1451 1450 1449 1448 1447 1446 1445 1445 1444 1444 1443